Location: ????????
(55.6189°N, 38.3031°E)
Time: 04:38:29
(UTC+00:00)

NOSS 2-1 (E) - Pass Details

Date: 15 November 2019
Orbit: 457 x 1747 km, 63.3° (Epoch: 02 December)

Event Time Altitude Azimuth Distance (km) Brightness Sun altitude
Exits shadow 02:18:40 52° 355° (N) 687 3.7 -22.5°
Drops below altitude 10° 02:22:39 10° 50° (NE) 2,045 6.9 -21.9°
Sets 02:25:20 0° 55° (NE) 3,145 8.0 -21.5°
